TimeCDT,TemperatureF,Dew PointF,Humidity,Sea Level PressureIn,VisibilityMPH,Wind Direction,Wind SpeedMPH,Gust SpeedMPH,PrecipitationIn,Events,Conditions,WindDirDegrees,DateUTC
12:53 AM,34.0,25.0,70,30.25,10.0,WNW,6.9,-,N/A,,Overcast,290,2013-03-27 05:53:00
1:53 AM,34.0,24.1,67,30.26,10.0,WNW,6.9,-,N/A,,Overcast,290,2013-03-27 06:53:00
2:53 AM,33.1,23.0,66,30.26,10.0,WNW,6.9,-,N/A,,Overcast,290,2013-03-27 07:53:00
3:53 AM,34.0,23.0,64,30.26,10.0,WNW,6.9,-,N/A,,Overcast,290,2013-03-27 08:53:00
4:53 AM,33.1,23.0,66,30.26,10.0,WNW,8.1,-,N/A,,Overcast,290,2013-03-27 09:53:00
5:53 AM,33.1,23.0,66,30.26,10.0,WNW,6.9,-,N/A,,Overcast,300,2013-03-27 10:53:00
6:53 AM,33.1,23.0,66,30.28,10.0,WNW,5.8,-,N/A,,Mostly Cloudy,300,2013-03-27 11:53:00
7:53 AM,34.0,23.0,64,30.30,10.0,WNW,6.9,-,N/A,,Mostly Cloudy,300,2013-03-27 12:53:00
8:53 AM,35.1,24.1,64,30.31,10.0,NW,5.8,-,N/A,,Mostly Cloudy,310,2013-03-27 13:53:00
9:53 AM,36.0,24.1,62,30.32,10.0,WNW,6.9,-,N/A,,Mostly Cloudy,300,2013-03-27 14:53:00
10:53 AM,39.0,24.1,55,30.32,10.0,NW,8.1,-,N/A,,Mostly Cloudy,320,2013-03-27 15:53:00
11:53 AM,41.0,19.9,43,30.32,10.0,NNW,6.9,-,N/A,,Overcast,330,2013-03-27 16:53:00
12:53 PM,41.0,19.9,43,30.32,10.0,NNW,11.5,-,N/A,,Mostly Cloudy,330,2013-03-27 17:53:00
1:53 PM,42.1,19.0,40,30.32,10.0,NNW,10.4,-,N/A,,Overcast,330,2013-03-27 18:53:00
2:53 PM,42.1,19.9,41,30.31,10.0,WNW,8.1,-,N/A,,Overcast,300,2013-03-27 19:53:00
3:53 PM,41.0,19.9,43,30.30,10.0,WNW,10.4,-,N/A,,Overcast,300,2013-03-27 20:53:00
4:53 PM,39.9,21.0,47,30.30,10.0,WNW,9.2,-,N/A,,Overcast,290,2013-03-27 21:53:00
5:53 PM,39.0,21.0,49,30.31,10.0,WNW,8.1,-,N/A,,Overcast,290,2013-03-27 22:53:00
6:53 PM,36.0,21.9,57,30.31,10.0,WNW,4.6,-,N/A,,Overcast,290,2013-03-27 23:53:00
7:53 PM,32.0,21.9,66,30.31,10.0,West,3.5,-,N/A,,Mostly Cloudy,270,2013-03-28 00:53:00
8:53 PM,30.9,21.0,67,30.32,10.0,West,3.5,-,N/A,,Clear,260,2013-03-28 01:53:00
9:53 PM,28.9,19.9,69,30.32,10.0,WSW,4.6,-,N/A,,Clear,250,2013-03-28 02:53:00
10:53 PM,28.0,19.0,69,30.32,10.0,WSW,4.6,-,N/A,,Clear,250,2013-03-28 03:53:00
11:53 PM,27.0,19.0,72,30.32,10.0,West,5.8,-,N/A,,Clear,260,2013-03-28 04:53:00